Weather History for KUBE - March, 2013

Change the Weather History Date:

Thursday, March 7, 2013

  Actual Average (WUND) Record (WUND)
Temperature  
Mean Temperature 12 °F -  
Max Temperature 30 °F - - (-1)
Min Temperature -5 °F - - (-1)
Degree Days  
Heating Degree Days 52    
Moisture  
Dew Point 6 °F    
Average Humidity 72    
Maximum Humidity 93    
Minimum Humidity 51    
Precipitation  
Precipitation 0.00 in - - ()
Sea Level Pressure  
Sea Level Pressure 30.33 in    
Wind  
Wind Speed 1 mph (SSE)    
Max Wind Speed 9 mph    
Max Gust Speed -    
Visibility 10 miles    
Events Fog    
Averages and records for this station are not official NWS values.
T = Trace of Precipitation, MM = Missing Value Source: NWS Daily Summary

Daily Weather History Graph

Daily Weather History Graph

Search for Another Location

Airport or City:

Trip Planner

Search our weather history database for the weather conditions in past years. The results will help you decide how hot, cold, wet, or windy it might be!

Date:

Astronomy

Mar. 07, 2013 Rise Set
Actual Time 6:34 AM CST 6:03 PM CST
Civil Twilight 6:05 AM CST 6:33 PM CST
Nautical Twilight 5:31 AM CST 7:07 PM CST
Astronomical Twilight 4:56 AM CST 7:42 PM CST
Moon 3:45 AM CST (3/7) 1:41 PM CST (3/7)
Length of Visible Light 12h 27m
Length of Day
11h 28m
Waning Crescent, 20% of the Moon is Illuminated
Mar 7
Waning Crescent
Mar 11
New
Mar 19
First Quarter
Mar 27
Full
Apr 2
Last Quarter

Hourly Weather History & Observations

Time (CST) Temp. Windchill Dew Point Humidity Pressure Visibility Wind Dir Wind Speed Gust Speed Precip Events Conditions
12:15 AM 5.0 °F - 1.4 °F 85% 30.33 in 0.5 mi Calm Calm - N/A Fog Light Freezing Fog
12:35 AM 5.0 °F - 1.4 °F 85% 30.33 in 1.0 mi Calm Calm - N/A   Mist
12:55 AM 1.4 °F - -0.4 °F 92% 30.34 in 5.0 mi Calm Calm - N/A   Clear
1:15 AM 5.0 °F - 1.4 °F 85% 30.33 in 7.0 mi Calm Calm - N/A   Clear
1:35 AM 3.2 °F - 1.4 °F 92% 30.32 in 7.0 mi Calm Calm - N/A   Clear
1:55 AM -0.4 °F - -4.0 °F 85% 30.32 in 10.0 mi Calm Calm - N/A   Clear
2:15 AM -0.4 °F - -4.0 °F 85% 30.33 in 10.0 mi Calm Calm - N/A   Clear
2:35 AM -2.2 °F - -7.6 °F 78% 30.33 in 10.0 mi Calm Calm - N/A   Clear
2:55 AM -0.4 °F - -4.0 °F 85% 30.32 in 10.0 mi Calm Calm - N/A   Clear
3:15 AM 1.4 °F - -2.2 °F 85% 30.33 in 10.0 mi Calm Calm - N/A   Clear
3:35 AM 1.4 °F - -2.2 °F 85% 30.32 in 10.0 mi Calm Calm - N/A   Clear
3:55 AM 1.4 °F - -4.0 °F 78% 30.33 in 10.0 mi Calm Calm - N/A   Clear
4:15 AM -0.4 °F - -4.0 °F 85% 30.33 in 10.0 mi Calm Calm - N/A   Clear
4:35 AM -4.0 °F - -7.6 °F 85% 30.34 in 10.0 mi Calm Calm - N/A   Clear
4:55 AM -4.0 °F - -9.4 °F 78% 30.34 in 10.0 mi Calm Calm - N/A   Clear
5:15 AM -4.0 °F - -7.6 °F 85% 30.34 in 10.0 mi Calm Calm - N/A   Clear
5:35 AM -0.4 °F - -5.8 °F 78% 30.34 in 10.0 mi Calm Calm - N/A   Clear
5:55 AM -5.8 °F - -9.4 °F 84% 30.34 in 10.0 mi Calm Calm - N/A   Clear
6:15 AM -4.0 °F - -7.6 °F 85% 30.35 in 10.0 mi Calm Calm - N/A   Clear
6:35 AM -4.0 °F - -9.4 °F 78% 30.35 in 10.0 mi Calm Calm - N/A   Clear
6:55 AM -5.8 °F - -9.4 °F 84% 30.35 in 10.0 mi Calm Calm - N/A   Clear
7:15 AM -4.0 °F - -7.6 °F 85% 30.36 in 10.0 mi Calm Calm - N/A   Clear
7:35 AM -4.0 °F - -7.6 °F 85% 30.36 in 10.0 mi Calm Calm - N/A   Clear
7:55 AM -2.2 °F - -5.8 °F 85% 30.35 in 10.0 mi Calm Calm - N/A   Clear
8:15 AM 1.4 °F - -2.2 °F 85% 30.35 in 10.0 mi Calm Calm - N/A   Clear
8:35 AM 1.4 °F - -2.2 °F 85% 30.36 in 10.0 mi Calm Calm - N/A   Clear
8:55 AM 5.0 °F - 3.2 °F 92% 30.36 in 10.0 mi Calm Calm - N/A   Clear
9:15 AM 10.4 °F - 6.8 °F 85% 30.37 in 10.0 mi Calm Calm - N/A   Clear
9:35 AM 12.2 °F - 10.4 °F 92% 30.37 in 10.0 mi Calm Calm - N/A   Clear
9:55 AM 14.0 °F - 12.2 °F 93% 30.37 in 10.0 mi Calm Calm - N/A   Clear
10:15 AM 15.8 °F - 12.2 °F 86% 30.37 in 10.0 mi Calm Calm - N/A   Clear
10:35 AM 15.8 °F - 12.2 °F 86% 30.37 in 10.0 mi Calm Calm - N/A   Clear
10:55 AM 19.4 °F 12.8 °F 14.0 °F 80% 30.37 in 10.0 mi SE 4.6 mph - N/A   Clear
11:15 AM 23.0 °F 18.4 °F 14.0 °F 68% 30.37 in 10.0 mi SE 3.5 mph - N/A   Clear
11:35 AM 24.8 °F - 14.0 °F 64% 30.37 in 10.0 mi Calm Calm - N/A   Clear
11:55 AM 24.8 °F 19.1 °F 14.0 °F 64% 30.38 in 10.0 mi SSE 4.6 mph - N/A   Clear
12:15 PM 26.6 °F 20.0 °F 14.0 °F 59% 30.37 in 10.0 mi SSE 5.8 mph - N/A   Clear
12:35 PM 26.6 °F 20.0 °F 14.0 °F 59% 30.36 in 10.0 mi SSE 5.8 mph - N/A   Clear
12:55 PM 28.4 °F 23.3 °F 14.0 °F 55% 30.35 in 10.0 mi South 4.6 mph - N/A   Clear
1:15 PM 28.4 °F 24.6 °F 14.0 °F 55% 30.35 in 10.0 mi South 3.5 mph - N/A   Clear
1:35 PM 28.4 °F 24.6 °F 14.0 °F 55% 30.34 in 10.0 mi South 3.5 mph - N/A   Clear
1:55 PM 28.4 °F 24.6 °F 14.0 °F 55% 30.33 in 10.0 mi South 3.5 mph - N/A   Clear
2:15 PM 26.6 °F 22.6 °F 14.0 °F 59% 30.32 in 10.0 mi South 3.5 mph - N/A   Clear
2:35 PM 28.4 °F 23.3 °F 14.0 °F 55% 30.33 in 10.0 mi South 4.6 mph - N/A   Clear
2:55 PM 28.4 °F 23.3 °F 15.8 °F 59% 30.33 in 10.0 mi South 4.6 mph - N/A   Clear
3:15 PM 28.4 °F 24.6 °F 15.8 °F 59% 30.33 in 10.0 mi South 3.5 mph - N/A   Scattered Clouds
3:35 PM 30.2 °F 24.3 °F 14.0 °F 51% 30.32 in 10.0 mi SSE 5.8 mph - N/A   Scattered Clouds
3:55 PM 28.4 °F 24.6 °F 17.6 °F 64% 30.32 in 10.0 mi South 3.5 mph - N/A   Clear
4:15 PM 28.4 °F 24.6 °F 14.0 °F 55% 30.31 in 10.0 mi South 3.5 mph - N/A   Clear
4:35 PM 28.4 °F 23.3 °F 14.0 °F 55% 30.32 in 10.0 mi South 4.6 mph - N/A   Clear
4:55 PM 26.6 °F 21.2 °F 14.0 °F 59% 30.32 in 10.0 mi South 4.6 mph - N/A   Clear
5:15 PM 26.6 °F - 12.2 °F 55% 30.32 in 10.0 mi Calm Calm - N/A   Clear
5:35 PM 24.8 °F 20.5 °F 12.2 °F 59% 30.32 in 10.0 mi SE 3.5 mph - N/A   Clear
5:55 PM 24.8 °F 20.5 °F 12.2 °F 59% 30.32 in 10.0 mi SSE 3.5 mph - N/A   Clear
7:35 PM 24.8 °F 19.1 °F 12.2 °F 59% 30.30 in 10.0 mi ESE 4.6 mph - N/A   Clear
7:55 PM 23.0 °F 15.8 °F 12.2 °F 63% 30.29 in 10.0 mi ESE 5.8 mph - N/A   Clear
8:15 PM 24.8 °F 19.1 °F 12.2 °F 59% 30.30 in 10.0 mi ESE 4.6 mph - N/A   Clear
8:35 PM 23.0 °F 17.0 °F 12.2 °F 63% 30.30 in 10.0 mi SE 4.6 mph - N/A   Clear
8:55 PM 21.2 °F 14.9 °F 10.4 °F 63% 30.30 in 10.0 mi SE 4.6 mph - N/A   Clear
9:15 PM 23.0 °F 15.8 °F 12.2 °F 63% 30.30 in 10.0 mi SE 5.8 mph - N/A   Clear
9:35 PM 21.2 °F 14.9 °F 12.2 °F 68% 30.30 in 10.0 mi SE 4.6 mph - N/A   Clear
9:55 PM 21.2 °F 13.6 °F 10.4 °F 63% 30.30 in 10.0 mi SE 5.8 mph - N/A   Clear
10:15 PM 23.0 °F 14.7 °F 12.2 °F 63% 30.29 in 10.0 mi SE 6.9 mph - N/A   Clear
10:35 PM 23.0 °F 13.1 °F 12.2 °F 63% 30.29 in 10.0 mi ESE 9.2 mph - N/A   Clear
10:55 PM 21.2 °F 12.6 °F 12.2 °F 68% 30.29 in 10.0 mi SE 6.9 mph - N/A   Clear
11:15 PM 21.2 °F 13.6 °F 10.4 °F 63% 30.30 in 10.0 mi SSE 5.8 mph - N/A   Clear
11:35 PM 21.2 °F 13.6 °F 10.4 °F 63% 30.31 in 10.0 mi SE 5.8 mph - N/A   Clear
11:55 PM 19.4 °F 12.8 °F 10.4 °F 68% 30.31 in 10.0 mi SE 4.6 mph - N/A   Clear